Regional Weather Roundup
Issued by NWS

Home | Current Version | Previous Version | Text Only | Print | Product List | Glossary Off
Versions: 1 2 3 4 5 6 7 8 9 10 11 12 13 14 15 16 17 18 19 20 21 22 23 24 25 26 27 28 29 30 31 32 33 34 35 36 37 38 39 40 41 42 43 44 45 46 47 48 49 50

000
ASUS43 KTOP 272308
RWRKS

WEATHER ROUNDUP FOR KANSAS
NATIONAL WEATHER SERVICE GOODLAND KS
600 PM CDT TUE SEP 27 2016

NOTE:  "FAIR" INDICATES FEW OR NO CLOUDS BELOW 12,000 FEET WITH NO
SIGNIFICANT WEATHER AND/OR OBSTRUCTIONS TO VISIBILITY.

KSZ001>006-013>018-027>032-041>047-280000-
NORTHWEST KANSAS

CITY           SKY/WX    TMP DP  RH WIND       PRES   REMARKS
GOODLAND       SUNNY     86  30  13 NW5       30.02F
HAYS           SUNNY     86  45  23 N8        29.94F
HILL CITY      SUNNY     86  48  26 CALM      29.95F HAZE
RUSSELL        SUNNY     83  49  30 NW8       29.93F
$$

KSZ061>065-074>080-084>089-280000-
SOUTHWEST KANSAS

CITY           SKY/WX    TMP DP  RH WIND       PRES   REMARKS
DODGE CITY     SUNNY     87  36  16 NW8       29.99F
ELKHART          N/A     86  40  19 NE5         N/A
GARDEN CITY    SUNNY     86  35  16 E5        30.00F
GREAT BEND     SUNNY     86  45  23 NW8       29.94S
LIBERAL        SUNNY     88  37  16 SW5       30.03S
PRATT          SUNNY     83  42  23 NW3       29.96F
$$

KSZ066>073-081>083-090>101-280000-
SOUTHEAST KANSAS

CITY           SKY/WX    TMP DP  RH WIND       PRES   REMARKS
CHANUTE        SUNNY     80  54  40 SW8       29.92F
COFFEYVILLE    SUNNY     82  51  34 W8        29.93F
HUTCHINSON     SUNNY     85  47  26 W9        29.93F
MEDICINE LODGE   N/A     82  52  35 S9        29.95F
NEWTON         SUNNY     79  55  43 S13       29.94F
PARSONS        SUNNY     80  52  37 SW6       29.94F
WICHITA INTL   MOSUNNY   80  55  42 S7        29.94F
WICHITA JABRA  SUNNY     78  55  44 S9        29.94F
WICHITA MCCONL SUNNY     79  56  44 SW9       29.94F
WINFIELD       SUNNY     80  55  42 SW5       29.96F
$$

KSZ007>012-019>026-033>040-048>060-102>105-280000-
NORTHEAST KANSAS

CITY           SKY/WX    TMP DP  RH WIND       PRES   REMARKS
CONCORDIA      SUNNY     81  48  31 W8        29.90F HAZE
EMPORIA        SUNNY     80  51  36 W6        29.91F
LAWRENCE       SUNNY     79  53  40 W7        29.88F
MANHATTAN      SUNNY     82  54  37 W6        29.89F
MARYSVILLE     SUNNY     81  48  32 NW6       29.88F
OLATHE IND     SUNNY     78  52  40 NW5       29.90F
OLATHE EXE     SUNNY     77  50  38 W6        29.89F
SALINA         SUNNY     83  51  33 W8        29.91F
TOPEKA BILLARD SUNNY     80  50  34 W6        29.88F
TOPEKA FORBES  SUNNY     81  53  37 W7        29.89F
$$




USA.gov is the U.S. government's official web portal to all federal, state and local government web resources and services.